Quick links : Home Page : Contact Us : Index : Site Map : Search Site : Ephemerides


(163818) 2003 RX7

Orbital Elements

The following orbital elements are taken from MPO123559
(163818) 2003 RX7
Epoch 2007 Oct. 27.0 TT = JDT 2454400.5                 MPC
M 265.38915              (2000.0)            P               Q
n   0.72305859     Peri.  245.71448     -0.58676448     -0.79420243
a   1.2293826      Node   241.14502     +0.79285748     -0.52383731
e   0.3545735      Incl.   10.38995     +0.16457358     -0.30795613
P   1.36           H   18.4           G   0.15           U   1
From 285 observations at 3 oppositions, 2003-2007, mean residual 0".44.
An explanation of the orbital elements is available.

These orbital elements are also available in forms suitable for loading into a number of popular planetarium-type software programs.


Ephemeris

The following ephemeris is at intervals of five days. A daily ephemeris covering the same time interval is also available.

Personalized ephemerides for this (and other) objects may be generated using the Minor Planet & Comet Ephemeris Service.

Date    TT    R. A. (2000) Decl.     Delta      r     Elong.  Phase     V
2008 08 22    15 35.78   -11 48.7    1.252    1.545    85.4    40.7    21.4

Back to Observable Critical-List Minor Planets

MPC

Valid HTML 4.01!